DAL1143 KLAX-KIAH

Flight info

Callsign DAL1143
Flight time 2h 32m
Altitude 37000
Route PNDAH2 TCATE IPL J2 FST BUBAY DIESL TTORO3
Aircraft A319/M-SDE3FGHIRWY/LB1

Departure

Time 2026-04-26 17:00
Airport Los Angeles International Airport (KLAX)

Arrival

Time 2026-04-26 19:33
Airport George Bush Intercontinental Airport (KIAH)
Time Latitude Longitude Altitude Speed Heading
2026-04-26 16:42 33.94729 -118.40335 92 ft 0 kts 237°
2026-04-26 16:53 33.94733 -118.40327 95 ft 4 kts 237°
2026-04-26 16:53 33.94747 -118.40302 93 ft 2 kts 236°
2026-04-26 16:53 33.94755 -118.40278 93 ft 4 kts 287°
2026-04-26 16:53 33.94741 -118.40259 94 ft 4 kts 351°
2026-04-26 16:54 33.94721 -118.40256 92 ft 0 kts 353°
2026-04-26 16:56 33.94730 -118.40257 95 ft 3 kts 353°
2026-04-26 16:57 33.94748 -118.40260 93 ft 4 kts 353°
2026-04-26 16:57 33.94792 -118.40266 93 ft 8 kts 352°
2026-04-26 16:57 33.94897 -118.40259 94 ft 8 kts 69°
2026-04-26 16:58 33.94905 -118.40192 96 ft 8 kts 83°
2026-04-26 16:58 33.94909 -118.40146 94 ft 9 kts 83°
2026-04-26 16:58 33.94933 -118.39948 93 ft 12 kts 68°
2026-04-26 16:59 33.95001 -118.39911 93 ft 11 kts 355°
2026-04-26 16:59 33.95024 -118.40137 97 ft 50 kts 262°
2026-04-26 17:00 33.94832 -118.41995 262 ft 150 kts 263°
2026-04-26 17:00 33.94568 -118.44454 1663 ft 148 kts 264°
2026-04-26 17:00 33.94446 -118.45740 2095 ft 166 kts 264°
2026-04-26 17:01 33.94325 -118.47216 2429 ft 188 kts 266°
2026-04-26 17:01 33.94261 -118.48879 2797 ft 209 kts 268°
2026-04-26 17:01 33.94210 -118.50682 3272 ft 230 kts 268°
2026-04-26 17:01 33.93895 -118.52635 3911 ft 247 kts 247°
2026-04-26 17:02 33.92804 -118.54263 4799 ft 259 kts 218°
2026-04-26 17:02 33.91079 -118.54988 5696 ft 274 kts 186°
2026-04-26 17:02 33.89150 -118.54803 6644 ft 280 kts 176°
2026-04-26 17:02 33.87203 -118.54523 7524 ft 284 kts 177°
2026-04-26 17:03 33.85256 -118.54239 8386 ft 288 kts 177°
2026-04-26 17:03 33.83252 -118.53951 9254 ft 292 kts 178°
2026-04-26 17:03 33.81217 -118.53664 10105 ft 297 kts 178°
2026-04-26 17:03 33.79096 -118.53372 10480 ft 318 kts 178°
2026-04-26 17:04 33.76808 -118.53068 10749 ft 341 kts 178°
2026-04-26 17:04 33.74415 -118.52729 11350 ft 353 kts 175°
2026-04-26 17:04 33.72020 -118.51865 12119 ft 366 kts 159°
2026-04-26 17:04 33.69825 -118.50234 12935 ft 378 kts 143°
2026-04-26 17:05 33.68012 -118.47905 13753 ft 388 kts 126°
2026-04-26 17:05 33.66678 -118.45057 14441 ft 394 kts 118°
2026-04-26 17:05 33.65431 -118.42123 15144 ft 398 kts 118°
2026-04-26 17:05 33.64164 -118.39152 15891 ft 402 kts 118°
2026-04-26 17:06 33.62879 -118.36153 16676 ft 405 kts 119°
2026-04-26 17:06 33.61584 -118.33145 17412 ft 409 kts 120°
2026-04-26 17:06 33.60268 -118.30104 18091 ft 413 kts 120°
2026-04-26 17:06 33.58938 -118.27037 18667 ft 416 kts 120°
2026-04-26 17:07 33.57614 -118.23986 19208 ft 420 kts 120°
2026-04-26 17:07 33.56261 -118.20865 19724 ft 424 kts 121°
2026-04-26 17:07 33.54897 -118.17708 20224 ft 428 kts 121°
2026-04-26 17:07 33.53522 -118.14522 20762 ft 432 kts 121°
2026-04-26 17:08 33.52134 -118.11308 21293 ft 436 kts 121°
2026-04-26 17:08 33.50732 -118.08060 21831 ft 439 kts 121°
2026-04-26 17:08 33.49325 -118.04794 22365 ft 443 kts 121°
2026-04-26 17:08 33.47875 -118.01533 22895 ft 443 kts 126°
2026-04-26 17:09 33.46091 -117.98542 23392 ft 440 kts 136°
2026-04-26 17:09 33.44707 -117.96773 23696 ft 437 kts 142°
2026-04-26 17:09 33.41667 -117.93538 24242 ft 439 kts 145°
2026-04-26 17:09 33.39367 -117.91113 24587 ft 443 kts 146°
2026-04-26 17:10 33.37048 -117.88665 24963 ft 446 kts 146°
2026-04-26 17:10 33.34715 -117.86194 25348 ft 449 kts 147°
2026-04-26 17:10 33.32401 -117.83740 25735 ft 452 kts 147°
2026-04-26 17:10 33.30043 -117.81237 26116 ft 455 kts 147°
2026-04-26 17:11 33.27671 -117.78718 26501 ft 457 kts 147°
2026-04-26 17:11 33.25279 -117.76180 26880 ft 460 kts 147°
2026-04-26 17:11 33.22878 -117.73638 27260 ft 462 kts 147°
2026-04-26 17:11 33.20459 -117.71086 27606 ft 465 kts 148°
2026-04-26 17:12 33.16144 -117.65078 28310 ft 493 kts 129°
2026-04-26 17:12 33.14614 -117.61362 28639 ft 508 kts 117°
2026-04-26 17:13 33.12295 -117.53368 29280 ft 516 kts 116°
2026-04-26 17:13 33.11112 -117.49318 29574 ft 518 kts 116°
2026-04-26 17:13 33.08699 -117.41154 30116 ft 525 kts 117°
2026-04-26 17:14 33.07474 -117.37033 30365 ft 527 kts 117°
2026-04-26 17:14 33.05008 -117.28745 30774 ft 533 kts 117°
2026-04-26 17:14 33.03763 -117.24570 31027 ft 536 kts 117°
2026-04-26 17:15 33.01276 -117.16213 31734 ft 534 kts 117°
2026-04-26 17:15 33.00037 -117.12047 32132 ft 533 kts 118°
2026-04-26 17:15 32.98816 -117.07947 32514 ft 532 kts 118°
2026-04-26 17:16 32.97561 -117.03746 32899 ft 531 kts 118°
2026-04-26 17:16 32.96339 -116.99665 33319 ft 530 kts 118°
2026-04-26 17:16 32.95100 -116.95538 33727 ft 529 kts 118°
2026-04-26 17:16 32.93862 -116.91421 34099 ft 528 kts 118°
2026-04-26 17:17 32.92625 -116.87308 34428 ft 527 kts 118°
2026-04-26 17:17 32.91389 -116.83205 34732 ft 526 kts 118°
2026-04-26 17:17 32.90158 -116.79132 35054 ft 525 kts 118°
2026-04-26 17:17 32.88922 -116.75051 35297 ft 524 kts 118°
2026-04-26 17:18 32.87684 -116.70974 35563 ft 524 kts 118°
2026-04-26 17:18 32.86475 -116.66990 35801 ft 524 kts 118°
2026-04-26 17:18 32.85212 -116.62826 36068 ft 523 kts 118°
2026-04-26 17:18 32.83975 -116.58756 36299 ft 523 kts 117°
2026-04-26 17:19 32.81540 -116.50668 36808 ft 525 kts 115°
2026-04-26 17:19 32.80725 -116.46385 36966 ft 536 kts 103°
2026-04-26 17:19 32.80424 -116.41944 36985 ft 540 kts 98°
2026-04-26 17:20 32.80017 -116.34519 36996 ft 542 kts 99°
2026-04-26 17:20 32.79413 -116.24079 37021 ft 543 kts 99°
2026-04-26 17:21 32.78878 -116.15127 36989 ft 543 kts 99°
2026-04-26 17:21 32.78342 -116.06162 36994 ft 544 kts 99°
2026-04-26 17:22 32.77801 -115.97187 36987 ft 544 kts 99°
2026-04-26 17:22 32.77257 -115.88291 36985 ft 544 kts 100°
2026-04-26 17:23 32.76697 -115.79327 36979 ft 544 kts 100°
2026-04-26 17:23 32.76128 -115.70371 36973 ft 544 kts 100°
2026-04-26 17:24 32.75555 -115.61402 36948 ft 544 kts 100°
2026-04-26 17:24 32.74990 -115.52421 36956 ft 547 kts 99°
2026-04-26 17:25 32.75079 -115.43319 36961 ft 552 kts 93°
2026-04-26 17:25 32.75303 -115.34197 36960 ft 552 kts 93°
2026-04-26 17:26 32.75508 -115.25088 36963 ft 552 kts 93°
2026-04-26 17:26 32.75714 -115.15972 36974 ft 552 kts 93°
2026-04-26 17:27 32.75916 -115.06860 36976 ft 552 kts 93°
2026-04-26 17:27 32.76104 -114.97750 36976 ft 552 kts 94°
2026-04-26 17:28 32.76286 -114.88628 36958 ft 553 kts 94°
2026-04-26 17:28 32.76465 -114.79493 36960 ft 553 kts 94°
2026-04-26 17:29 32.76609 -114.71888 36964 ft 554 kts 94°
2026-04-26 17:29 32.76800 -114.61196 36969 ft 554 kts 94°
2026-04-26 17:30 32.76942 -114.52105 36969 ft 554 kts 94°
2026-04-26 17:30 32.77064 -114.42949 36975 ft 554 kts 94°
2026-04-26 17:31 32.77179 -114.33792 36911 ft 554 kts 94°
2026-04-26 17:31 32.77293 -114.24623 36920 ft 555 kts 94°
2026-04-26 17:32 32.77402 -114.15443 36929 ft 556 kts 94°
2026-04-26 17:32 32.77497 -114.06255 36933 ft 556 kts 94°
2026-04-26 17:33 32.77685 -113.97057 36942 ft 560 kts 88°
2026-04-26 17:34 32.79581 -113.83363 36939 ft 563 kts 83°
2026-04-26 17:34 32.80897 -113.74191 36898 ft 563 kts 83°
2026-04-26 17:35 32.81991 -113.65010 36917 ft 556 kts 95°
2026-04-26 17:35 32.81256 -113.55998 36936 ft 546 kts 104°
2026-04-26 17:36 32.80293 -113.47041 36936 ft 546 kts 104°
2026-04-26 17:36 32.79311 -113.38097 36933 ft 546 kts 104°
2026-04-26 17:37 32.78330 -113.29139 36941 ft 546 kts 104°
2026-04-26 17:37 32.77357 -113.20192 36938 ft 546 kts 104°
2026-04-26 17:38 32.75881 -113.06788 36896 ft 546 kts 104°
2026-04-26 17:38 32.74888 -112.97874 36922 ft 547 kts 104°
2026-04-26 17:39 32.73882 -112.88901 36940 ft 548 kts 104°
2026-04-26 17:39 32.73038 -112.81436 36953 ft 549 kts 104°
2026-04-26 17:40 32.72182 -112.73908 36947 ft 549 kts 104°
2026-04-26 17:40 32.70989 -112.63466 36957 ft 549 kts 104°
2026-04-26 17:41 32.69962 -112.54478 36955 ft 549 kts 104°
2026-04-26 17:41 32.68928 -112.45482 36931 ft 549 kts 104°
2026-04-26 17:42 32.67887 -112.36510 36935 ft 549 kts 104°
2026-04-26 17:42 32.66838 -112.27595 36883 ft 549 kts 104°
2026-04-26 17:43 32.65782 -112.18616 36898 ft 549 kts 104°
2026-04-26 17:43 32.64720 -112.09645 36909 ft 549 kts 104°
2026-04-26 17:44 32.63656 -112.00673 36928 ft 549 kts 105°
2026-04-26 17:44 32.62582 -111.91700 36915 ft 549 kts 105°
2026-04-26 17:45 32.61498 -111.82738 36918 ft 549 kts 105°
2026-04-26 17:45 32.60400 -111.73771 36916 ft 549 kts 105°
2026-04-26 17:46 32.59302 -111.64802 36908 ft 549 kts 105°
2026-04-26 17:46 32.58211 -111.55870 36970 ft 550 kts 105°
2026-04-26 17:47 32.57296 -111.48413 36947 ft 550 kts 105°
2026-04-26 17:47 32.56000 -111.37984 36997 ft 551 kts 105°
2026-04-26 17:48 32.54871 -111.29002 37009 ft 551 kts 105°
2026-04-26 17:48 32.53739 -111.20019 37006 ft 551 kts 105°
2026-04-26 17:49 32.52602 -111.11047 36959 ft 550 kts 105°
2026-04-26 17:49 32.51458 -111.02078 36946 ft 550 kts 105°
2026-04-26 17:50 32.50311 -110.93113 36918 ft 550 kts 105°
2026-04-26 17:50 32.49156 -110.84148 36885 ft 551 kts 105°
2026-04-26 17:51 32.48003 -110.75244 36854 ft 550 kts 105°
2026-04-26 17:51 32.46838 -110.66294 36847 ft 550 kts 105°
2026-04-26 17:52 32.45665 -110.57340 36851 ft 551 kts 105°
2026-04-26 17:52 32.44483 -110.48389 36859 ft 551 kts 105°
2026-04-26 17:53 32.43294 -110.39435 36848 ft 550 kts 105°
2026-04-26 17:54 32.41514 -110.26021 36857 ft 549 kts 105°
2026-04-26 17:54 32.40317 -110.17108 36842 ft 549 kts 106°
2026-04-26 17:55 32.39104 -110.08199 36836 ft 548 kts 106°
2026-04-26 17:55 32.37889 -109.99312 36838 ft 547 kts 106°
2026-04-26 17:56 32.36672 -109.90410 36814 ft 548 kts 106°
2026-04-26 17:57 32.34247 -109.72656 36756 ft 549 kts 106°
2026-04-26 17:57 32.33009 -109.63752 36763 ft 549 kts 106°
2026-04-26 17:58 32.30513 -109.45948 36754 ft 549 kts 106°
2026-04-26 17:59 32.28624 -109.32607 36776 ft 548 kts 106°
2026-04-26 17:59 32.27364 -109.23725 36777 ft 548 kts 106°
2026-04-26 18:00 32.26104 -109.14886 36780 ft 548 kts 106°
2026-04-26 18:00 32.24832 -109.06022 36772 ft 547 kts 107°
2026-04-26 18:01 32.23550 -108.97158 36775 ft 547 kts 107°
2026-04-26 18:01 32.22267 -108.88306 36737 ft 546 kts 106°
2026-04-26 18:02 32.21196 -108.80960 36772 ft 546 kts 107°
2026-04-26 18:02 32.19682 -108.70640 36949 ft 546 kts 107°
2026-04-26 18:03 32.18377 -108.61817 36919 ft 545 kts 107°
2026-04-26 18:03 32.17072 -108.53007 36879 ft 545 kts 107°
2026-04-26 18:04 32.15762 -108.44191 36833 ft 545 kts 107°
2026-04-26 18:05 32.13784 -108.30983 36752 ft 544 kts 107°
2026-04-26 18:05 32.12457 -108.22190 36759 ft 544 kts 107°
2026-04-26 18:06 32.11128 -108.13400 36750 ft 544 kts 107°
2026-04-26 18:06 32.09793 -108.04611 36755 ft 544 kts 107°
2026-04-26 18:07 32.08451 -107.95821 36748 ft 545 kts 107°
2026-04-26 18:07 32.07107 -107.87032 36737 ft 544 kts 107°
2026-04-26 18:08 32.05757 -107.78257 36861 ft 544 kts 107°
2026-04-26 18:08 32.04388 -107.69487 36840 ft 544 kts 107°
2026-04-26 18:09 32.03028 -107.60773 36822 ft 544 kts 107°
2026-04-26 18:09 32.01661 -107.52005 36780 ft 544 kts 107°
2026-04-26 18:10 32.00287 -107.43241 36733 ft 544 kts 107°
2026-04-26 18:10 31.98895 -107.34482 36715 ft 544 kts 107°
2026-04-26 18:11 31.97500 -107.25730 36729 ft 544 kts 107°
2026-04-26 18:11 31.96107 -107.16982 36716 ft 543 kts 107°
2026-04-26 18:12 31.94712 -107.08246 36727 ft 543 kts 108°
2026-04-26 18:12 31.93324 -106.99605 36719 ft 542 kts 107°
2026-04-26 18:13 31.91920 -106.90886 36723 ft 542 kts 107°
2026-04-26 18:13 31.91221 -106.86581 36924 ft 541 kts 107°
2026-04-26 18:13 31.90511 -106.82239 36960 ft 541 kts 107°
2026-04-26 18:14 31.89084 -106.73528 36973 ft 541 kts 107°
2026-04-26 18:14 31.87662 -106.64826 36978 ft 542 kts 107°
2026-04-26 18:15 31.86235 -106.56125 36945 ft 542 kts 107°
2026-04-26 18:15 31.84790 -106.47432 36954 ft 541 kts 108°
2026-04-26 18:16 31.83349 -106.38737 36952 ft 541 kts 107°
2026-04-26 18:16 31.81018 -106.25780 36915 ft 535 kts 114°
2026-04-26 18:17 31.78930 -106.17382 36861 ft 536 kts 114°
2026-04-26 18:17 31.76838 -106.08965 36811 ft 537 kts 114°
2026-04-26 18:18 31.74761 -106.00583 36764 ft 537 kts 114°
2026-04-26 18:18 31.72665 -105.92152 36725 ft 538 kts 113°
2026-04-26 18:19 31.70557 -105.83718 36733 ft 538 kts 113°
2026-04-26 18:19 31.68446 -105.75276 36745 ft 539 kts 113°
2026-04-26 18:20 31.66328 -105.66842 36752 ft 539 kts 114°
2026-04-26 18:20 31.64902 -105.61191 36717 ft 539 kts 113°
2026-04-26 18:21 31.62062 -105.49981 36745 ft 538 kts 113°
2026-04-26 18:21 31.59933 -105.41551 36751 ft 538 kts 113°
2026-04-26 18:22 31.57802 -105.33152 36755 ft 538 kts 113°
2026-04-26 18:22 31.55663 -105.24803 36759 ft 537 kts 113°
2026-04-26 18:23 31.53513 -105.16406 36765 ft 538 kts 113°
2026-04-26 18:23 31.51362 -105.08013 36771 ft 538 kts 113°
2026-04-26 18:24 31.49199 -104.99605 36780 ft 538 kts 113°
2026-04-26 18:24 31.47029 -104.91227 36753 ft 538 kts 113°
2026-04-26 18:25 31.44860 -104.82846 36746 ft 537 kts 113°
2026-04-26 18:25 31.42687 -104.74471 36762 ft 538 kts 113°
2026-04-26 18:26 31.40505 -104.66083 36771 ft 538 kts 113°
2026-04-26 18:26 31.38325 -104.57765 36770 ft 538 kts 113°
2026-04-26 18:27 31.36127 -104.49394 36772 ft 538 kts 113°
2026-04-26 18:27 31.33917 -104.40969 36777 ft 538 kts 113°
2026-04-26 18:28 31.31716 -104.32604 36776 ft 538 kts 113°
2026-04-26 18:28 31.29517 -104.24305 36778 ft 538 kts 113°
2026-04-26 18:29 31.27303 -104.15956 36776 ft 537 kts 113°
2026-04-26 18:29 31.25084 -104.07600 36800 ft 538 kts 113°
2026-04-26 18:30 31.22861 -103.99275 36792 ft 537 kts 113°
2026-04-26 18:30 31.20630 -103.90954 36775 ft 536 kts 113°
2026-04-26 18:31 31.18399 -103.82639 36812 ft 537 kts 113°
2026-04-26 18:31 31.16540 -103.75714 36781 ft 538 kts 113°
2026-04-26 18:32 31.14295 -103.67373 36779 ft 539 kts 113°
2026-04-26 18:32 31.12037 -103.59023 36793 ft 540 kts 113°
2026-04-26 18:33 31.09769 -103.50679 36790 ft 540 kts 114°
2026-04-26 18:33 31.07494 -103.42324 36776 ft 539 kts 113°
2026-04-26 18:34 31.05221 -103.33994 36770 ft 539 kts 113°
2026-04-26 18:34 31.02959 -103.25722 36782 ft 538 kts 113°
2026-04-26 18:35 31.00681 -103.17412 36780 ft 538 kts 113°
2026-04-26 18:35 30.98400 -103.09114 36777 ft 538 kts 113°
2026-04-26 18:36 30.96134 -103.00807 36776 ft 540 kts 110°
2026-04-26 18:36 30.95091 -102.92081 36774 ft 548 kts 92°
2026-04-26 18:37 30.94955 -102.83201 36764 ft 548 kts 93°
2026-04-26 18:37 30.94792 -102.74368 36753 ft 548 kts 93°
2026-04-26 18:38 30.94604 -102.65497 36769 ft 548 kts 93°
2026-04-26 18:38 30.94418 -102.56612 36780 ft 548 kts 93°
2026-04-26 18:39 30.94230 -102.47742 36786 ft 548 kts 93°
2026-04-26 18:39 30.94042 -102.38887 36780 ft 547 kts 93°
2026-04-26 18:40 30.93844 -102.30030 36785 ft 547 kts 93°
2026-04-26 18:40 30.93634 -102.21178 36771 ft 547 kts 93°
2026-04-26 18:41 30.93420 -102.12328 36791 ft 547 kts 93°
2026-04-26 18:41 30.93200 -102.03479 36791 ft 547 kts 93°
2026-04-26 18:42 30.92977 -101.94691 36798 ft 546 kts 93°
2026-04-26 18:42 30.92753 -101.85848 36799 ft 546 kts 93°
2026-04-26 18:43 30.92526 -101.77235 36802 ft 545 kts 93°
2026-04-26 18:43 30.92284 -101.68407 36796 ft 545 kts 93°
2026-04-26 18:44 30.92031 -101.59575 36798 ft 546 kts 93°
2026-04-26 18:44 30.91775 -101.50751 36802 ft 546 kts 93°
2026-04-26 18:45 30.91517 -101.41975 36812 ft 546 kts 93°
2026-04-26 18:45 30.91265 -101.33136 36813 ft 546 kts 92°
2026-04-26 18:46 30.91385 -101.24289 36906 ft 547 kts 87°
2026-04-26 18:46 30.91802 -101.15448 36892 ft 547 kts 86°
2026-04-26 18:47 30.92175 -101.06594 36876 ft 547 kts 88°
2026-04-26 18:47 30.92414 -100.97743 36866 ft 547 kts 89°
2026-04-26 18:48 30.92602 -100.88893 36842 ft 546 kts 89°
2026-04-26 18:48 30.92813 -100.80105 36826 ft 546 kts 88°
2026-04-26 18:49 30.93050 -100.71259 36831 ft 546 kts 88°
2026-04-26 18:49 30.93285 -100.62414 36831 ft 546 kts 88°
2026-04-26 18:50 30.93497 -100.53568 36827 ft 546 kts 88°
2026-04-26 18:50 30.93699 -100.44723 36826 ft 546 kts 88°
2026-04-26 18:51 30.93902 -100.35881 36814 ft 546 kts 88°
2026-04-26 18:51 30.94100 -100.27039 36813 ft 546 kts 88°
2026-04-26 18:52 30.94264 -100.19687 36809 ft 546 kts 88°
2026-04-26 18:52 30.94487 -100.09348 36821 ft 547 kts 88°
2026-04-26 18:53 30.94665 -100.00503 36817 ft 547 kts 88°
2026-04-26 18:53 30.94832 -99.91638 36815 ft 547 kts 88°
2026-04-26 18:54 30.94997 -99.82795 36810 ft 546 kts 88°
2026-04-26 18:54 30.95160 -99.73938 36818 ft 546 kts 88°
2026-04-26 18:55 30.95322 -99.65097 36812 ft 546 kts 88°
2026-04-26 18:55 30.95467 -99.56262 36809 ft 545 kts 88°
2026-04-26 18:56 30.95604 -99.47432 36800 ft 545 kts 88°
2026-04-26 18:56 30.95740 -99.38605 36811 ft 545 kts 88°
2026-04-26 18:57 30.95851 -99.31277 36848 ft 545 kts 88°
2026-04-26 18:57 30.95995 -99.20958 36846 ft 545 kts 88°
2026-04-26 18:58 30.96112 -99.12193 36839 ft 545 kts 88°
2026-04-26 18:58 30.96225 -99.03370 36836 ft 545 kts 88°
2026-04-26 18:59 30.96337 -98.94547 36828 ft 544 kts 88°
2026-04-26 18:59 30.96415 -98.85718 36829 ft 544 kts 91°
2026-04-26 19:00 30.95455 -98.76995 36826 ft 544 kts 100°
2026-04-26 19:00 30.94238 -98.68302 36806 ft 544 kts 100°
2026-04-26 19:01 30.93026 -98.59599 36895 ft 543 kts 100°
2026-04-26 19:01 30.91823 -98.50920 36885 ft 543 kts 100°
2026-04-26 19:02 30.90602 -98.42240 36879 ft 543 kts 100°
2026-04-26 19:02 30.89572 -98.35025 36895 ft 543 kts 100°
2026-04-26 19:03 30.88133 -98.24932 36918 ft 543 kts 100°
2026-04-26 19:03 30.86895 -98.16261 36915 ft 543 kts 100°
2026-04-26 19:04 30.85652 -98.07590 36902 ft 543 kts 100°
2026-04-26 19:04 30.84397 -97.98929 36888 ft 542 kts 100°
2026-04-26 19:05 30.82506 -97.85959 36897 ft 541 kts 100°
2026-04-26 19:06 30.81241 -97.77330 36903 ft 541 kts 100°
2026-04-26 19:06 30.79965 -97.68718 36907 ft 541 kts 100°
2026-04-26 19:07 30.78679 -97.60098 36655 ft 541 kts 100°
2026-04-26 19:07 30.78039 -97.55793 36409 ft 540 kts 100°
2026-04-26 19:07 30.77401 -97.51498 36158 ft 538 kts 100°
2026-04-26 19:07 30.76761 -97.47204 35892 ft 537 kts 100°
2026-04-26 19:08 30.76128 -97.42983 35222 ft 539 kts 101°
2026-04-26 19:08 30.75475 -97.38659 34022 ft 548 kts 101°
2026-04-26 19:08 30.74821 -97.34325 33196 ft 541 kts 101°
2026-04-26 19:08 30.74166 -97.30012 32001 ft 543 kts 101°
2026-04-26 19:09 30.73509 -97.25700 31124 ft 539 kts 101°
2026-04-26 19:09 30.72862 -97.21457 30407 ft 530 kts 101°
2026-04-26 19:09 30.72224 -97.17255 29629 ft 523 kts 101°
2026-04-26 19:09 30.71601 -97.13139 28907 ft 513 kts 101°
2026-04-26 19:10 30.70991 -97.09088 28232 ft 503 kts 101°
2026-04-26 19:10 30.70392 -97.05134 27671 ft 494 kts 101°
2026-04-26 19:10 30.69793 -97.01219 27068 ft 490 kts 101°
2026-04-26 19:10 30.69193 -96.97341 26484 ft 485 kts 101°
2026-04-26 19:11 30.68594 -96.93499 25911 ft 481 kts 101°
2026-04-26 19:11 30.68001 -96.89688 25342 ft 477 kts 101°
2026-04-26 19:11 30.67415 -96.85912 24789 ft 472 kts 101°
2026-04-26 19:11 30.66835 -96.82181 24255 ft 466 kts 101°
2026-04-26 19:12 30.66262 -96.78501 23740 ft 460 kts 101°
2026-04-26 19:12 30.65695 -96.74865 23200 ft 455 kts 101°
2026-04-26 19:12 30.65136 -96.71276 22702 ft 448 kts 101°
2026-04-26 19:12 30.64582 -96.67740 22221 ft 442 kts 101°
2026-04-26 19:13 30.64031 -96.64240 21744 ft 437 kts 101°
2026-04-26 19:13 30.63488 -96.60789 21269 ft 432 kts 101°
2026-04-26 19:13 30.62950 -96.57383 20791 ft 428 kts 101°
2026-04-26 19:13 30.62421 -96.54044 20331 ft 425 kts 101°
2026-04-26 19:14 30.61885 -96.50678 19838 ft 423 kts 101°
2026-04-26 19:14 30.61350 -96.47330 19343 ft 421 kts 101°
2026-04-26 19:14 30.60711 -96.44037 18839 ft 416 kts 108°
2026-04-26 19:14 30.60393 -96.42970 18673 ft 414 kts 112°
2026-04-26 19:15 30.58081 -96.38212 17798 ft 403 kts 129°
2026-04-26 19:15 30.56420 -96.35616 17368 ft 395 kts 128°
2026-04-26 19:15 30.54799 -96.33066 16920 ft 391 kts 128°
2026-04-26 19:15 30.53195 -96.30531 16440 ft 388 kts 128°
2026-04-26 19:16 30.51603 -96.28004 15961 ft 386 kts 128°
2026-04-26 19:16 30.50025 -96.25497 15479 ft 383 kts 128°
2026-04-26 19:16 30.48455 -96.23012 15001 ft 381 kts 128°
2026-04-26 19:16 30.46889 -96.20541 14497 ft 379 kts 128°
2026-04-26 19:17 30.45330 -96.18082 14010 ft 378 kts 128°
2026-04-26 19:17 30.43775 -96.15630 13498 ft 377 kts 128°
2026-04-26 19:17 30.42231 -96.13194 12971 ft 374 kts 128°
2026-04-26 19:17 30.40702 -96.10784 12460 ft 367 kts 128°
2026-04-26 19:18 30.39223 -96.08457 12310 ft 351 kts 128°
2026-04-26 19:18 30.37805 -96.06229 12164 ft 337 kts 129°
2026-04-26 19:18 30.36228 -96.04318 11950 ft 323 kts 144°
2026-04-26 19:18 30.34356 -96.02958 11573 ft 316 kts 158°
2026-04-26 19:19 30.32332 -96.02139 11236 ft 310 kts 166°
2026-04-26 19:19 30.30255 -96.01393 10602 ft 314 kts 165°
2026-04-26 19:19 30.28198 -96.00642 10053 ft 312 kts 165°
2026-04-26 19:19 30.26148 -95.99886 9546 ft 305 kts 165°
2026-04-26 19:20 30.24153 -95.99148 9010 ft 297 kts 165°
2026-04-26 19:20 30.23488 -95.98902 8849 ft 294 kts 165°
2026-04-26 19:20 30.20323 -95.97732 8158 ft 278 kts 165°
2026-04-26 19:20 30.18544 -95.97078 8086 ft 261 kts 165°
2026-04-26 19:21 30.16862 -95.96459 8009 ft 246 kts 165°
2026-04-26 19:21 30.15266 -95.95873 7910 ft 237 kts 165°
2026-04-26 19:21 30.13703 -95.95302 7841 ft 235 kts 165°
2026-04-26 19:21 30.12147 -95.94730 7782 ft 234 kts 165°
2026-04-26 19:22 30.10597 -95.94157 7735 ft 234 kts 165°
2026-04-26 19:22 30.09052 -95.93586 7715 ft 232 kts 165°
2026-04-26 19:22 30.07513 -95.93017 7659 ft 232 kts 165°
2026-04-26 19:22 30.05974 -95.92448 7603 ft 231 kts 165°
2026-04-26 19:23 30.04444 -95.91884 7544 ft 232 kts 165°
2026-04-26 19:23 30.02934 -95.91213 7501 ft 234 kts 153°
2026-04-26 19:23 30.02059 -95.90480 7462 ft 237 kts 139°
2026-04-26 19:23 30.00727 -95.88512 7378 ft 230 kts 128°
2026-04-26 19:24 30.00114 -95.87516 7344 ft 229 kts 127°
2026-04-26 19:24 29.99412 -95.85857 7281 ft 233 kts 109°
2026-04-26 19:24 29.99214 -95.82105 7150 ft 236 kts 93°
2026-04-26 19:25 29.99225 -95.80212 7083 ft 236 kts 92°
2026-04-26 19:25 29.99232 -95.78961 7039 ft 235 kts 92°
2026-04-26 19:25 29.99243 -95.76442 6972 ft 234 kts 93°
2026-04-26 19:25 29.99251 -95.74553 6700 ft 237 kts 93°
2026-04-26 19:26 29.99257 -95.72639 6352 ft 239 kts 93°
2026-04-26 19:26 29.99264 -95.70716 6002 ft 240 kts 92°
2026-04-26 19:26 29.99271 -95.68796 5676 ft 240 kts 94°
2026-04-26 19:26 29.99278 -95.66868 5351 ft 240 kts 93°
2026-04-26 19:27 29.99284 -95.64947 5024 ft 238 kts 93°
2026-04-26 19:27 29.99291 -95.63053 4730 ft 234 kts 93°
2026-04-26 19:27 29.99298 -95.61224 4440 ft 227 kts 94°
2026-04-26 19:27 29.99305 -95.59426 4134 ft 221 kts 95°
2026-04-26 19:28 29.99310 -95.57681 3848 ft 214 kts 93°
2026-04-26 19:28 29.99315 -95.55979 3568 ft 210 kts 93°
2026-04-26 19:28 29.99319 -95.54315 3334 ft 203 kts 94°
2026-04-26 19:28 29.99323 -95.52734 3026 ft 197 kts 95°
2026-04-26 19:29 29.99320 -95.51171 2706 ft 192 kts 95°
2026-04-26 19:29 29.99321 -95.49663 2452 ft 185 kts 94°
2026-04-26 19:29 29.99323 -95.48205 2212 ft 177 kts 94°
2026-04-26 19:29 29.99327 -95.46837 1990 ft 163 kts 95°
2026-04-26 19:30 29.99330 -95.45618 1802 ft 142 kts 96°
2026-04-26 19:30 29.99332 -95.44524 1627 ft 130 kts 97°
2026-04-26 19:30 29.99333 -95.43499 1462 ft 127 kts 96°
2026-04-26 19:30 29.99333 -95.42831 1355 ft 125 kts 96°
2026-04-26 19:31 29.99334 -95.41467 1143 ft 128 kts 96°
2026-04-26 19:31 29.99337 -95.40448 988 ft 126 kts 97°
2026-04-26 19:31 29.99338 -95.39446 785 ft 124 kts 94°
2026-04-26 19:31 29.99341 -95.38449 628 ft 123 kts 95°
2026-04-26 19:32 29.99347 -95.37466 485 ft 124 kts 94°
2026-04-26 19:32 29.99347 -95.36470 304 ft 123 kts 94°
2026-04-26 19:32 29.99342 -95.35488 152 ft 122 kts 95°
2026-04-26 19:32 29.99337 -95.34576 107 ft 96 kts 89°
2026-04-26 19:33 29.99344 -95.33996 105 ft 52 kts 90°
2026-04-26 19:33 29.99342 -95.33628 108 ft 41 kts 90°
2026-04-26 19:33 29.99322 -95.33336 108 ft 28 kts 108°
2026-04-26 19:33 29.99259 -95.33187 107 ft 16 kts 119°
2026-04-26 19:34 29.99231 -95.33131 107 ft 0 kts 121°
2026-04-26 19:34 29.99225 -95.33120 107 ft 4 kts 121°
2026-04-26 19:34 29.99206 -95.33082 107 ft 6 kts 121°
2026-04-26 19:34 29.99178 -95.33036 107 ft 8 kts 138°
2026-04-26 19:35 29.99123 -95.33029 107 ft 9 kts 188°
2026-04-26 19:35 29.99091 -95.33093 107 ft 11 kts 270°
2026-04-26 19:35 29.99091 -95.33184 107 ft 12 kts 270°
2026-04-26 19:35 29.99091 -95.33282 107 ft 13 kts 270°
2026-04-26 19:36 29.99091 -95.33392 107 ft 15 kts 270°
2026-04-26 19:36 29.99091 -95.33474 107 ft 16 kts 270°
2026-04-26 19:36 29.99090 -95.33665 107 ft 18 kts 270°
2026-04-26 19:36 29.99089 -95.33815 107 ft 19 kts 269°
2026-04-26 19:37 29.99088 -95.33970 107 ft 20 kts 269°
2026-04-26 19:37 29.99088 -95.34129 107 ft 20 kts 269°
2026-04-26 19:37 29.99085 -95.34292 107 ft 21 kts 269°
2026-04-26 19:37 29.99085 -95.34460 107 ft 21 kts 270°
2026-04-26 19:38 29.99085 -95.34622 107 ft 17 kts 270°
2026-04-26 19:38 29.99077 -95.34735 107 ft 14 kts 248°
2026-04-26 19:38 29.99003 -95.34801 107 ft 14 kts 200°
2026-04-26 19:38 29.98932 -95.34821 107 ft 8 kts 221°
2026-04-26 19:39 29.98926 -95.34868 107 ft 5 kts 270°
2026-04-26 19:39 29.98926 -95.34893 107 ft 2 kts 270°
2026-04-26 19:39 29.98926 -95.34899 107 ft 0 kts 270°